Cape Girardeau, MO

12:54 AM CDT on September 20, 2019 (GMT -0500)
Cape Girardeau Regional

Weather History for KCGI - August, 2019

Change the Weather History Date:

Sunday, August 18, 2019

  Actual Average Record
Temperature  
Mean Temperature 82 °F 77 °F  
Max Temperature 93 °F 89 °F 101 °F (2000)
Min Temperature 71 °F 65 °F 49 °F (2012)
Degree Days  
Heating Degree Days 0 0  
Month to date heating degree days 0 0  
Since 1 June heating degree days 0 4  
Since 1 July heating degree days 0 0  
Cooling Degree Days 17 12  
Month to date cooling degree days 258 231  
Year to date cooling degree days 1226 1117  
Since 1 June cooling degree days 1007 965  
Growing Degree Days 32 (Base 50)    
Moisture  
Dew Point 71 °F    
Average Humidity 70    
Maximum Humidity 87    
Minimum Humidity 52    
Precipitation  
Precipitation T in 0.10 in 0.83 in (1960)
Month to date precipitation 0.57 1.71  
Year to date precipitation 43.62 29.74  
Sea Level Pressure  
Sea Level Pressure 29.90 in    
Wind  
Wind Speed 6 mph (SW)    
Max Wind Speed 17 mph    
Max Gust Speed 26 mph    
Visibility 10 miles    
Events Thunderstorm    
T = Trace of Precipitation, MM = Missing Value Source: NWS Daily Summary

Daily Weather History Graph

Daily Weather History Graph

Search for Another Location

Airport or City:

Astronomy

Aug. 18, 2019 Rise Set
Actual Time 6:17 AM CDT 7:46 PM CDT
Civil Twilight 5:49 AM CDT 8:14 PM CDT
Nautical Twilight 5:16 AM CDT 8:47 PM CDT
Astronomical Twilight 4:41 AM CDT 9:21 PM CDT
Moon 9:45 PM CDT (8/18) 8:59 AM CDT (8/18)
Length of Visible Light 14h 24m
Length of Day
13h 29m
Waning Gibbous, 91% of the Moon is Illuminated
Aug 18
Waning Gibbous
Aug 23
Last Quarter
Aug 30
New
Sep 5
First Quarter
Sep 13
Full

Hourly Weather History & Observations

Time (CDT) Temp. Heat Index Dew Point Humidity Pressure Visibility Wind Dir Wind Speed Gust Speed Precip Events Conditions
12:53 AM 77.0 °F - 71.1 °F 82% 29.90 in 10.0 mi SSE 3.5 mph - N/A   Clear
2:53 AM 75.0 °F - 70.0 °F 84% 29.88 in 10.0 mi South 3.5 mph - N/A   Clear
3:53 AM 77.0 °F - 70.0 °F 79% 29.87 in 10.0 mi South 5.8 mph - N/A   Clear
4:53 AM 77.0 °F - 70.0 °F 79% 29.89 in 10.0 mi South 5.8 mph - N/A   Clear
5:53 AM 75.9 °F - 70.0 °F 82% 29.90 in 10.0 mi South 3.5 mph - N/A   Clear
6:53 AM 75.0 °F - 70.0 °F 84% 29.90 in 10.0 mi South 3.5 mph - N/A   Clear
7:53 AM 78.1 °F - 71.1 °F 79% 29.91 in 10.0 mi SSW 5.8 mph - N/A   Clear
8:53 AM 82.0 °F 86.7 °F 72.0 °F 71% 29.92 in 10.0 mi WSW 4.6 mph - N/A   Clear
9:53 AM 84.0 °F 90.2 °F 73.0 °F 69% 29.93 in 10.0 mi WSW 6.9 mph - N/A   Clear
10:53 AM 87.1 °F 95.4 °F 73.9 °F 65% 29.93 in 10.0 mi SSW 9.2 mph - N/A   Clear
11:53 AM 89.1 °F 98.0 °F 73.9 °F 61% 29.91 in 10.0 mi SW 9.2 mph 19.6 mph N/A   Clear
12:53 PM 91.0 °F 100.4 °F 73.9 °F 57% 29.90 in 10.0 mi South 11.5 mph - N/A   Clear
1:53 PM 91.9 °F 99.5 °F 72.0 °F 52% 29.87 in 10.0 mi SSW 13.8 mph 23.0 mph N/A   Clear
2:53 PM 89.1 °F 95.0 °F 71.1 °F 55% 29.88 in 10.0 mi SSW 8.1 mph - N/A   Partly Cloudy
3:39 PM 84.9 °F 90.7 °F 72.0 °F 65% 29.89 in 10.0 mi SSW 5.8 mph - N/A Thunderstorm Scattered Clouds
3:53 PM 84.0 °F 90.2 °F 73.0 °F 69% 29.88 in 10.0 mi SW 10.4 mph - N/A Thunderstorm Partly Cloudy
4:40 PM 81.0 °F 84.9 °F 71.1 °F 72% 29.89 in 10.0 mi WNW 4.6 mph - 0.00 in   Scattered Clouds
4:53 PM 81.0 °F 85.2 °F 72.0 °F 74% 29.90 in 10.0 mi West 8.1 mph - 0.00 in   Partly Cloudy
5:03 PM 81.0 °F 84.9 °F 71.1 °F 72% 29.90 in 10.0 mi West 5.8 mph - N/A Thunderstorm Clear
5:17 PM 82.9 °F 87.5 °F 71.1 °F 67% 29.89 in 10.0 mi West 8.1 mph - N/A   Clear
5:53 PM 84.0 °F 88.4 °F 70.0 °F 63% 29.88 in 10.0 mi Calm Calm - N/A   Clear
6:53 PM 80.1 °F 82.9 °F 69.1 °F 69% 29.89 in 10.0 mi SSW 9.2 mph - N/A   Clear
7:53 PM 77.0 °F - 71.1 °F 82% 29.90 in 10.0 mi Calm Calm - N/A   Partly Cloudy
8:53 PM 75.9 °F - 70.0 °F 82% 29.90 in 10.0 mi WNW 3.5 mph - N/A Thunderstorm Thunderstorm
9:13 PM 73.9 °F - 70.0 °F 87% 29.93 in 10.0 mi West 4.6 mph - N/A   Clear
9:53 PM 73.9 °F - 70.0 °F 87% 29.94 in 10.0 mi SW 5.8 mph - N/A   Clear
10:53 PM 73.0 °F - 69.1 °F 87% 29.96 in 10.0 mi WSW 4.6 mph - N/A   Clear
11:53 PM 73.0 °F - 69.1 °F 87% 29.96 in 10.0 mi WSW 5.8 mph - N/A   Clear